Observations for Trim Market St
| Time | AQI | Temp °C | Hum % | Pres Pa | CO μg/m³ | H₂S μg/m³ | NO μg/m³ | NO₂ μg/m³ | O₃ μg/m³ | SO₂ μg/m³ | PM1 μg/m³ | PM2.5 μg/m³ | PM10 μg/m³ |
|---|---|---|---|---|---|---|---|---|---|---|---|---|---|
| Sunday 16 August 2026 | |||||||||||||
| 19:51 | 3 | 21 | 69 | 53,904 | 0 | 0 | 1.1 | 10.26 | 70.11 | 0 | 1.43 | 2.6 | 4.37 |
| 19:48 | 3 | 21.1 | 69 | 54,524 | 0 | 0 | 1.09 | 6.39 | 61.06 | 0 | 1.43 | 2.62 | 4.36 |
| 19:47 | 3 | 21.1 | 69 | 54,731 | 0 | 0 | 1.1 | 7.11 | 63.68 | 0 | 0.71 | 2.14 | 3.72 |
| 19:39 | 3 | 21.4 | 68 | 55,714 | 0 | 0 | 1.13 | 5.9 | 64.55 | 0 | 0.71 | 2.68 | 4.32 |
| 19:37 | 3 | 21.4 | 67 | 55,859 | 0 | 0 | 1.12 | 6.21 | 69.35 | 0 | 0.71 | 2.69 | 4.32 |
| 19:35 | 3 | 21.5 | 67 | 55,945 | 0 | 0 | 1.14 | 14.73 | 69.28 | 0 | 0.71 | 2.21 | 3.67 |
| 19:33 | 3 | 21.5 | 67 | 56,020 | 0 | 0 | 1.17 | 7.56 | 65.14 | 0 | 0 | 2.21 | 3.66 |
| 19:28 | 3 | 21.7 | 66 | 56,239 | 0.07 | 0 | 1.11 | 7.78 | 69.74 | 0 | 0 | 2.24 | 3.64 |
| 19:27 | 3 | 21.7 | 66 | 56,309 | 0.07 | 0 | 1.13 | 8.32 | 73.11 | 0 | 0 | 1.75 | 2.99 |
| 19:26 | 3 | 21.7 | 66 | 56,375 | 0.12 | 0 | 1.13 | 7.63 | 69.6 | 0 | 0.71 | 2.74 | 4.93 |
| 19:25 | 3 | 21.7 | 66 | 56,414 | 0.08 | 0 | 1.12 | 6.49 | 65.2 | 0 | 1.43 | 2.25 | 4.93 |
| 19:24 | 3 | 21.8 | 66 | 56,432 | 0.14 | 0 | 1.12 | 7.14 | 63.3 | 0 | 0.71 | 2.75 | 4.28 |
| 19:23 | 3 | 21.7 | 66 | 56,448 | 0.02 | 0 | 1.12 | 6.93 | 66.17 | 0 | 0.71 | 2.75 | 4.28 |
| 19:22 | 3 | 21.8 | 66 | 56,459 | 0 | 0 | 1.08 | 7.24 | 65.02 | 0 | 0.71 | 2.75 | 4.28 |
| 19:21 | 3 | 21.8 | 66 | 56,485 | 0 | 0 | 1.08 | 6.79 | 59.61 | 0 | 0 | 2.26 | 4.93 |
| 19:20 | 3 | 21.8 | 66 | 56,504 | 0 | 0 | 1.1 | 6.54 | 64.29 | 0 | 0 | 1.77 | 2.97 |
| 19:19 | 3 | 21.8 | 66 | 56,515 | 0 | 0 | 1.09 | 6.72 | 68.68 | 0 | 1.43 | 2.27 | 4.92 |
| 19:18 | 3 | 21.8 | 66 | 56,527 | 0 | 0 | 1.1 | 6.85 | 57.35 | 0 | 0.71 | 2.76 | 4.27 |
| 19:17 | 3 | 21.8 | 66 | 56,548 | 0.04 | 0 | 1.08 | 6.8 | 63.59 | 0 | 0.71 | 2.76 | 4.27 |
| 19:16 | 3 | 21.8 | 66 | 56,567 | 0.14 | 0 | 1.08 | 6.84 | 66.95 | 0 | 0.71 | 3.26 | 4.92 |